Weather in Bolshoy Kuganak

Russia / Republic of Bashkortostan     53°48′27″N   56°06′03″E
temp.,
°C
wind,
m/s
gust,
m/s
humid.,
%
clouds,
%
prec.,
mm/h
press.,
hPa
HPBL,
m
7 march, sun
sun723:00−12ssw2296100 0.1 101421
02:00−11w1195100 0.0 101321
05:00−12n2394100 0.0 101144
08:00−14nnw2394100 0.0 101046
11:00−12nnw469298 0.0 1010267
14:00−10nnw358718 0.0 1010395
17:00−10nw238817 0.0 1010300
20:00−14sw239458 0.0 101221
8 march, mon
mon823:00−17ssw339543 0.0 101321
02:00−15s499669 0.1 1012229
05:00−14s6139384 0.1 1010367
08:00−12s91693100 0.5 1006619
11:00−8ssw121792100 1.1 10051041
14:00−4ssw111791100 0.8 10031241
17:00−3sw91585100 1.0 10041260
20:00−4sw61488100 0.9 10061048
9 march, tue
tue923:00−6sw3992100 1.1 1008289
02:00−5ssw3897100 0.3 1007240
05:00−3ssw71395100 0.9 1005665
08:00−3ssw71395100 1.1 1004764
11:00−2wsw81193100 2.4 1005873
14:00−4w71078100 0.2 10071127
17:00−5wsw3584100 0.2 1008482
20:00−11nw1190100 0.0 100821
10 march, wed
wed1023:00−11nne2392100 0.0 100838
02:00−10n3695100 0.2 1006176
05:00−11nnw5995100 0.7 1006298
08:00−13nw4994100 0.3 1007269
11:00−14nw4694100 0.4 1008301
14:00−12nw4691100 0.2 1010436
17:00−13nw5790100 0.3 1011476
20:00−16nnw4894100 0.1 1013298
11 march, thu
thu1123:00−20nnw3797100 0.3 1015197
02:00−22nw2397100 0.1 101763
05:00−27nw239697 0.1 101922
08:00−29nw129724 0.0 102119
11:00−23wnw129136 0.0 1021265
14:00−19wsw348494 0.0 1021435
17:00−18sw468564 0.0 1022493
20:00−23wsw349330 0.0 102345